Spokane Fairchild, WA
on Sunday, February 10, 2013

Sunday
Previous Day Next Day
Daily Summary
 ActualAverage (KGEG)Record (KGEG)
Temperature
Mean Temperature °F 32°F  
Max Temperature 32°F 38°F 55°F (1963)
Min Temperature 19°F 26°F -6°F (1929)
Degree Days
Heating Degree Days 40 33  
Month to date heating degree days 332  
Since 1 July heating degree days 4265  
Cooling Degree Days 0 0  
Month to date cooling degree days 0  
Year to date cooling degree days 0  
Moisture
Dew Point 25°F   
Average Humidity 96    
Maximum Humidity 100    
Minimum Humidity 86    
Precipitation
Precipitation 0.00 in 0.05 in 0.59 in (1961)
Month to date precipitation 0.47  
Year to date precipitation 2.26  
Snow
Snow 0.00 in 0.20 in 3.10 in (1904)
Month to date snowfall 2.7  
Since 1 July snowfall 36.2  
Snow Depth in   
Wind
Wind Speed 3 mph   
Max Wind Speed 6 mph   
Max Gust Speed mph   
Visibility 6 miles   
Events Fog , Snow   

Key: T is trace of precipitation, MM is missing value
Source: NWS Daily Summary
Time(PST)TemperatureDew PointHumidity Pressure Visibility Wind DirectionWind SpeedGust SpeedPrecipitationEvents Conditions
12:08 AM 21.2°F 19.4°F 93% 30.15 in 1.0 miles NNW 1.2 mph - N/A   Clear
12:13 AM 19.4°F 19.4°F 100% 30.15 in 1.5 miles Calm Calm - N/A   Clear
12:18 AM 19.4°F 19.4°F 100% 30.15 in 1.2 miles North 1.2 mph - N/A   Clear
12:23 AM 19.4°F 19.4°F 100% 30.15 in 1.0 miles NNW 3.5 mph - N/A   Clear
12:28 AM 19.4°F 19.4°F 100% 30.16 in 0.8 miles NNW 2.3 mph - N/A   Clear
12:38 AM 21.2°F 19.4°F 93% 30.16 in 0.8 miles North 2.3 mph - N/A   Clear
12:43 AM 21.2°F 19.4°F 93% 30.15 in 1.0 miles North 3.5 mph - N/A   Clear
12:48 AM 21.2°F 21.2°F 100% 30.15 in 0.8 miles North 4.6 mph - N/A   Clear
12:53 AM 23.0°F 23.0°F 100% 30.16 in 0.8 miles North 3.5 mph - N/A   Clear
12:58 AM 23.0°F 23.0°F 100% 30.26 in 0.8 miles NNE 3.5 mph - 0.00 in   Clear
1:08 AM 21.2°F 21.2°F 100% 30.16 in 0.8 miles NE 2.3 mph - N/A   Clear
1:13 AM 21.2°F 19.4°F 93% 30.15 in 0.8 miles NNE 2.3 mph - N/A   Clear
1:18 AM 21.2°F 19.4°F 93% 30.15 in 1.0 miles NE 2.3 mph - N/A   Clear
1:23 AM 21.2°F 19.4°F 93% 30.16 in 1.0 miles NE 3.5 mph - N/A   Clear
1:33 AM 21.2°F 19.4°F 93% 30.16 in 1.5 miles NE 3.5 mph - N/A   Clear
1:38 AM 21.2°F 19.4°F 93% 30.16 in 1.2 miles NE 3.5 mph - N/A   Clear
1:43 AM 21.2°F 19.4°F 93% 30.16 in 1.0 miles ENE 2.3 mph - N/A   Partly Cloudy
1:45 AM 21.2°F 19.4°F 93% 30.16 in 0.8 miles ENE 3.5 mph - N/A Snow Light Snow
1:50 AM 21.2°F 19.4°F 93% 30.16 in 0.8 miles ENE 3.5 mph - N/A Snow Light Snow
1:55 AM 21.2°F 19.4°F 93% 30.16 in 0.8 miles ENE 2.3 mph - N/A Snow Light Snow
1:58 AM 20.7°F 19.4°F 95% 30.26 in 0.8 miles ENE 2.3 mph - 0.00 in Snow Light Snow
2:00 AM 21.2°F 19.4°F 93% 30.16 in 1.0 miles ENE 2.3 mph - N/A   Mostly Cloudy
2:05 AM 21.2°F 19.4°F 93% 30.17 in 1.0 miles ENE 2.3 mph - N/A   Light Freezing Drizzle
2:09 AM 21.2°F 19.4°F 93% 30.17 in 0.8 miles NE 1.2 mph - N/A   Overcast
2:14 AM 21.2°F 19.4°F 93% 30.17 in 1.0 miles NNE 1.2 mph - N/A   Overcast
2:19 AM 21.2°F 19.4°F 93% 30.17 in 1.2 miles Calm Calm - N/A   Overcast
2:24 AM 21.2°F 21.2°F 100% 30.16 in 2.5 miles Calm Calm - N/A   Overcast
2:29 AM 21.2°F 21.2°F 100% 30.16 in 6.0 miles NNE 1.2 mph - N/A   Overcast
2:34 AM 21.2°F 21.2°F 100% 30.16 in 9.0 miles NNE 1.2 mph - N/A   Overcast
2:58 AM 21.9°F 21.0°F 96% 30.26 in 10.0 miles NE 1.2 mph - N/A   Mostly Cloudy
3:18 AM 23.0°F 23.0°F 100% 30.17 in 10.0 miles NE 2.3 mph - N/A   Partly Cloudy
3:33 AM 24.8°F 23.0°F 93% 30.16 in 2.5 miles NE 4.6 mph - N/A   Mostly Cloudy
3:38 AM 24.8°F 23.0°F 93% 30.17 in 1.0 miles ENE 4.6 mph - N/A   Mist
3:43 AM 24.8°F 23.0°F 93% 30.17 in 0.8 miles NE 4.6 mph - N/A   Mist
3:53 AM 24.8°F 23.0°F 93% 30.17 in 1.0 miles NE 3.5 mph - N/A   Mist
3:58 AM 24.3°F 23.5°F 97% 30.26 in 1.0 miles NE 2.3 mph - N/A   Mist
4:28 AM 23.0°F 23.0°F 100% 30.18 in 0.8 miles NW 2.3 mph - N/A   Mist
4:33 AM 23.0°F 23.0°F 100% 30.17 in 0.8 miles NW 2.3 mph - N/A   Mist
4:48 AM 23.0°F 21.2°F 93% 30.18 in 0.5 miles NNW 3.5 mph - N/A Fog Light Freezing Fog
4:58 AM 22.5°F 21.6°F 96% 30.28 in 0.5 miles NW 2.3 mph - N/A Fog Light Freezing Fog
5:03 AM 23.0°F 21.2°F 93% 30.18 in 0.5 miles NW 2.3 mph - N/A Fog Light Freezing Fog
5:08 AM 23.0°F 21.2°F 93% 30.18 in 0.5 miles NNW 1.2 mph - N/A Fog Light Freezing Fog
5:23 AM 23.0°F 21.2°F 93% 30.18 in 0.5 miles North 2.3 mph - N/A Fog Light Freezing Fog
5:53 AM 23.0°F 21.2°F 93% 30.18 in 0.5 miles North 2.3 mph - N/A Fog Light Freezing Fog
5:58 AM 22.3°F 21.4°F 96% 30.28 in 0.5 miles Calm Calm - N/A Fog Light Freezing Fog
6:23 AM 23.0°F 21.2°F 93% 30.18 in 0.8 miles ENE 2.3 mph - N/A   Mist
6:28 AM 23.0°F 21.2°F 93% 30.19 in 0.5 miles ENE 2.3 mph - N/A Fog Light Freezing Fog
6:33 AM 21.2°F 21.2°F 100% 30.19 in 0.5 miles NNE 2.3 mph - N/A Fog Light Freezing Fog
6:55 AM 21.7°F 20.5°F 95% 30.30 in 0.5 miles Calm Calm - N/A Fog Light Freezing Fog
7:21 AM 21.2°F 21.2°F 100% 30.30 in 0.2 miles NE 3.5 mph - N/A Fog Light Freezing Fog
7:56 AM 23.0°F 21.2°F 93% 30.31 in 0.2 miles NE 4.6 mph - N/A Fog Light Freezing Fog
8:56 AM 24.8°F 24.8°F 100% 30.32 in 0.2 miles NE 4.6 mph - N/A Fog Light Freezing Fog
9:13 AM 24.8°F 24.8°F 100% 30.32 in 0.5 miles NE 4.6 mph - N/A Fog Light Freezing Fog
9:55 AM 26.6°F 26.6°F 100% 30.32 in 1.0 miles NE 4.6 mph - N/A   Mist
10:36 AM 28.4°F 28.4°F 100% 30.32 in 3.0 miles NE 4.6 mph - N/A   Overcast
10:44 AM 28.4°F 28.4°F 100% 30.23 in 10.0 miles NNE 5.8 mph - N/A   Overcast
10:58 AM 28.8°F 28.6°F 99% 30.33 in 10.0 miles North 3.5 mph - N/A   Overcast
11:03 AM 28.4°F 28.4°F 100% 30.23 in 10.0 miles North 4.6 mph - N/A   Overcast
11:13 AM 28.4°F 28.4°F 100% 30.23 in 10.0 miles North 4.6 mph - N/A   Overcast
11:28 AM 28.4°F 28.4°F 100% 30.22 in 10.0 miles NE 5.8 mph - N/A   Overcast
11:35 AM 28.4°F 28.4°F 100% 30.22 in 10.0 miles NNE 3.5 mph - N/A   Overcast
11:40 AM 28.4°F 28.4°F 100% 30.22 in 10.0 miles NNE 4.6 mph - N/A   Overcast
11:57 AM 30.2°F 30.2°F 100% 30.21 in 10.0 miles NNE 3.5 mph - N/A   Overcast
11:58 AM 30.2°F 30.2°F 100% 30.31 in 10.0 miles NNE 3.5 mph - 0.00 in   Overcast
12:06 PM 30.2°F 30.2°F 100% 30.21 in 10.0 miles NE 4.6 mph - N/A   Overcast
12:11 PM 30.2°F 30.2°F 100% 30.21 in 10.0 miles ENE 3.5 mph - N/A   Overcast
12:28 PM 30.2°F 28.4°F 93% 30.21 in 10.0 miles Variable 3.5 mph - N/A   Overcast
12:44 PM 30.2°F 30.2°F 100% 30.21 in 10.0 miles East 3.5 mph - N/A   Overcast
12:58 PM 30.0°F 29.7°F 99% 30.30 in 10.0 miles NE 2.3 mph - 0.00 in   Overcast
1:01 PM 30.2°F 30.2°F 100% 30.20 in 10.0 miles NE 4.6 mph - N/A   Overcast
1:04 PM 30.2°F 30.2°F 100% 30.20 in 10.0 miles East 3.5 mph - N/A   Overcast
1:14 PM 30.2°F 30.2°F 100% 30.20 in 10.0 miles ENE 2.3 mph - N/A   Overcast
1:21 PM 30.2°F 30.2°F 100% 30.20 in 10.0 miles Variable 4.6 mph - N/A   Overcast
1:41 PM 30.2°F 30.2°F 100% 30.20 in 10.0 miles ESE 4.6 mph - N/A   Overcast
1:58 PM 30.0°F 29.8°F 99% 30.30 in 10.0 miles ESE 3.5 mph - 0.00 in   Overcast
2:03 PM 30.2°F 30.2°F 100% 30.20 in 10.0 miles ENE 3.5 mph - N/A   Overcast
2:06 PM 30.2°F 30.2°F 100% 30.20 in 10.0 miles NE 2.3 mph - N/A   Overcast
2:25 PM 30.2°F 30.2°F 100% 30.20 in 10.0 miles SE 3.5 mph - N/A   Overcast
2:45 PM 30.2°F 30.2°F 100% 30.20 in 10.0 miles East 4.6 mph - N/A   Overcast
2:54 PM 30.2°F 30.2°F 100% 30.20 in 10.0 miles NE 2.3 mph - N/A   Overcast
2:58 PM 29.8°F 29.7°F 99% 30.30 in 10.0 miles East 3.5 mph - 0.00 in   Overcast
3:03 PM 30.2°F 30.2°F 100% 30.20 in 10.0 miles Variable 4.6 mph - N/A   Overcast
3:32 PM 32.0°F 30.2°F 93% 30.19 in 10.0 miles East 5.8 mph - N/A   Overcast
3:37 PM 32.0°F 28.4°F 87% 30.19 in 10.0 miles East 3.5 mph - N/A   Overcast
3:52 PM 32.0°F 28.4°F 87% 30.18 in 10.0 miles East 5.8 mph - N/A   Overcast
3:58 PM 32.0°F 28.6°F 87% 30.27 in 10.0 miles ESE 4.6 mph - 0.00 in   Overcast
4:04 PM 32.0°F 28.4°F 87% 30.18 in 10.0 miles ESE 5.8 mph - N/A   Mostly Cloudy
4:19 PM 32.0°F 28.4°F 87% 30.19 in 10.0 miles East 3.5 mph - N/A   Scattered Clouds
4:24 PM 32.0°F 28.4°F 87% 30.19 in 10.0 miles East 4.6 mph - N/A   Mostly Cloudy
4:29 PM 32.0°F 28.4°F 87% 30.18 in 10.0 miles East 5.8 mph - N/A   Mostly Cloudy
4:34 PM 32.0°F 28.4°F 87% 30.18 in 10.0 miles East 5.8 mph - N/A   Scattered Clouds
4:38 PM 32.0°F 28.4°F 87% 30.19 in 10.0 miles East 5.8 mph - N/A   Partly Cloudy
4:58 PM 30.7°F 27.9°F 89% 30.28 in 10.0 miles East 5.8 mph - 0.00 in   Partly Cloudy
5:13 PM 30.2°F 26.6°F 86% 30.19 in 10.0 miles SE 1.2 mph - N/A   Mostly Cloudy
5:38 PM 32.0°F 28.4°F 87% 30.18 in 10.0 miles ESE 5.8 mph - N/A   Overcast
5:48 PM 30.2°F 28.4°F 93% 30.18 in 10.0 miles East 4.6 mph - N/A   Overcast
5:58 PM 30.0°F 27.9°F 92% 30.29 in 10.0 miles East 3.5 mph - 0.00 in   Overcast
6:43 PM 30.2°F 26.6°F 86% 30.20 in 10.0 miles East 3.5 mph - N/A   Scattered Clouds
6:54 PM 30.2°F 26.6°F 86% 30.19 in 10.0 miles East 3.5 mph - N/A   Partly Cloudy
6:58 PM 29.5°F 27.0°F 90% 30.29 in 10.0 miles East 3.5 mph - 0.00 in   Partly Cloudy
7:01 PM 28.4°F 26.6°F 93% 30.19 in 10.0 miles East 2.3 mph - N/A   Clear
7:58 PM 28.2°F 26.6°F 94% 30.29 in 10.0 miles NE 3.5 mph - 0.00 in   Clear
8:58 PM 26.2°F 25.7°F 98% 30.28 in 10.0 miles East 3.5 mph - N/A   Clear
9:58 PM 26.2°F 26.1°F 99% 30.28 in 10.0 miles Calm Calm - N/A   Clear
10:18 PM 24.8°F 24.8°F 100% 30.18 in 5.0 miles Calm Calm - N/A   Clear
10:23 PM 24.8°F 23.0°F 93% 30.18 in 4.0 miles Calm Calm - N/A   Clear
10:28 PM 24.8°F 24.8°F 100% 30.18 in 5.0 miles Calm Calm - N/A   Clear
10:33 PM 24.8°F 24.8°F 100% 30.18 in 10.0 miles Calm Calm - N/A   Clear
10:43 PM 26.6°F 24.8°F 93% 30.18 in 10.0 miles Variable 1.2 mph - N/A   Clear
10:52 PM 24.8°F 24.8°F 100% 30.17 in 10.0 miles East 2.3 mph - N/A   Clear
10:58 PM 25.5°F 25.0°F 98% 30.27 in 10.0 miles East 1.2 mph - 0.00 in   Clear
11:58 PM 24.3°F 24.1°F 99% 30.25 in 8.0 miles ENE 1.2 mph - N/A   Clear
Moon Phase
Feb. 10 Feb. 17 Feb. 25 Mar. 04 Mar. 11
Sunrise:07:03 AM (PST) Moon Rise:06:50 AM (PST)2/10
Sunset:05:06 PM (PST) Moon Set:06:10 PM (PST)2/10

Copyright © 2014 The Weather Underground, Inc.